This is the latest recevied weather packets stored in our database for station/object W1ERB-13. If no packets are shown the sender has not sent any weather packets the latest 10 day(s).
| Time | Temp. | Humidity | Pressure | Rain* | Wind** | Luminosity | Snow |
|---|---|---|---|---|---|---|---|
| 1777742522 | 11.11° C | 80% | 1011 hPa | 0 mm | - | 42 W/m² | - |
| 1777742218 | 11.67° C | 76% | 1010.9 hPa | 0 mm | - | 75 W/m² | - |
| 1777741915 | 12.78° C | 74% | 1010.7 hPa | 0 mm | - | 193 W/m² | - |
| 1777741613 | 13.33° C | 72% | 1010.6 hPa | 0 mm | - | 204 W/m² | - |
| 1777741310 | 13.33° C | 70% | 1010.7 hPa | 0 mm | - | 186 W/m² | - |
| 1777741006 | 13.33° C | 71% | 1010.6 hPa | 0 mm | - | 281 W/m² | - |
| 1777740703 | 13.33° C | 72% | 1010.6 hPa | 0 mm | - | 350 W/m² | - |
| 1777740399 | 13.33° C | 70% | 1010.6 hPa | 0 mm | - | 370 W/m² | - |
| 1777740096 | 13.33° C | 70% | 1010.4 hPa | 0 mm | - | 484 W/m² | - |
| 1777739792 | 13.33° C | 73% | 1010.7 hPa | 0 mm | - | 301 W/m² | - |
| 1777739489 | 13.33° C | 73% | 1010.8 hPa | 0 mm | - | 270 W/m² | - |
| 1777739185 | 12.78° C | 73% | 1010.5 hPa | 0 mm | - | 351 W/m² | - |
| 1777738883 | 12.22° C | 78% | 1010.7 hPa | 0 mm | - | 219 W/m² | - |
| 1777738580 | 11.67° C | 79% | 1011 hPa | 0 mm | - | 218 W/m² | - |
| 1777738277 | 11.67° C | 80% | 1011 hPa | 0 mm | - | 112 W/m² | - |
| 1777737975 | 11.67° C | 80% | 1011 hPa | 0 mm | - | 58 W/m² | - |
| 1777737674 | 11.67° C | 82% | 1010.7 hPa | 0 mm | - | 37 W/m² | - |
| 1777737372 | 11.67° C | 80% | 1011 hPa | 1.27 mm | - | 27 W/m² | - |
| 1777737068 | 11.67° C | 80% | 1010.9 hPa | 1.27 mm | - | 31 W/m² | - |
| 1777736764 | 11.67° C | 79% | 1011 hPa | 0 mm | - | 31 W/m² | - |
| 1777736136 | 12.22° C | 76% | 1010.8 hPa | 0 mm | - | 40 W/m² | - |
| 1777735828 | 11.67° C | 76% | 1011.1 hPa | 0 mm | - | 34 W/m² | - |
| 1777735525 | 12.22° C | 75% | 1011.3 hPa | 0 mm | - | 41 W/m² | - |
| 1777735223 | 12.22° C | 75% | 1011.2 hPa | 0 mm | - | 52 W/m² | - |
| 1777734919 | 12.78° C | 75% | 1011.3 hPa | 0 mm | - | 75 W/m² | - |
* Rain latest hour (hover to see other rain measurements)
** Current wind speed in m/s (hover to see current wind gust speed)